Obergurgl, Austria 16 day weather forecast

Slopes altitude range 1795 m - 3080m

Number of lifts: 24 Pistes: 110km

In some cases the lift and piste totals shown are for the ski domain (e.g. Three Valleys) rather than individual resort (e.g. Courchevel)

Overview

The 16 day weather forecast is fully updated 4 times every day.

    • Sat 20 OCT 2018
    • Sat 20
    • -2C 7C
    • Sun 21 OCT 2018
    • Sun 21
    • -2C 4C
    • Mon 22 OCT 2018
    • Mon 22
    • -4C 4C
    • Tue 23 OCT 2018
    • Tue 23
    • -5C 3C
    • Wed 24 OCT 2018
    • Wed 24
    • 0C 2C
    • Thu 25 OCT 2018
    • Thu 25
    • -4C 7C
    • Fri 26 OCT 2018
    • Fri 26
    • -2C 7C
    • Sat 27 OCT 2018
    • Sat 27
    • -7C -1C
    • Sun 28 OCT 2018
    • Sun 28
    • -12C -6C
    • Mon 29 OCT 2018
    • Mon 29
    • -6C -2C
    • Tue 30 OCT 2018
    • Tue 30
    • -2C 2C
    • Wed 31 OCT 2018
    • Wed 31
    • 2C 4C
    • Thu 01 NOV 2018
    • Thu 01
    • 1C 4C
    • Fri 02 NOV 2018
    • Fri 02
    • -4C -3C
    • Sat 03 NOV 2018
    • Sat 03
    • -10C -2C
    • Sun 04 NOV 2018
    • Sun 04
    • -9C 1C

Date:

Time Type 0°C level Temp Chill Snow Cloud Speed Gust Dir Press
12:00 3083m 7°C 7_9 0cm 9% 9mph 9mph 1025mB
15:00 2997m 7°C 7_9 0cm 1% 9mph 9mph 1025mB
18:00 2628m 7°C 7_6 0cm 16% 6mph 7mph 1027mB
21:00 2319m -1°C -1_4 0cm 95% 4mph 5mph 1027mB
0:00 2091m -3°C -3_5 0cm 93% 5mph 6mph 1027mB
3:00 2150m -2°C -2_6 0cm 99% 6mph 7mph 1025mB
6:00 2078m -3°C -3_7 0cm 83% 7mph 9mph 1025mB
9:00 2628m -2°C -2_11 0cm 1% 11mph 13mph 1024mB
12:00 2712m 4°C 4_12 0cm 0% 12mph 13mph 1023mB
15:00 2548m 4°C 4_10 0cm 0% 10mph 11mph 1023mB
18:00 1661m 4°C 4_4 0cm 0% 4mph 5mph 1025mB
21:00 1688m -5°C -5_3 0cm 11% 3mph 5mph 1026mB
0:00 1744m -5°C -5_2 0cm 5% 2mph 3mph 1026mB
3:00 1766m -5°C -5_2 0cm 0% 2mph 3mph 1025mB
6:00 1744m -5°C -5_2 0cm 0% 2mph 3mph 1025mB
9:00 2629m -4°C -4_7 0cm 0% 7mph 8mph 1024mB
12:00 2747m 4°C 4_10 0cm 0% 10mph 10mph 1022mB
15:00 2519m 4°C 4_11 0cm 0% 11mph 11mph 1023mB
18:00 1816m 4°C 4_7 0cm 7% 7mph 8mph 1027mB
21:00 1883m -4°C -4_7 0cm 90% 7mph 8mph 1029mB
0:00 1758m -5°C -5_6 0cm 94% 6mph 6mph 1029mB
3:00 1733m -5°C -5_6 0cm 59% 6mph 8mph 1029mB
6:00 1683m -5°C -5_6 0cm 30% 6mph 8mph 1029mB
9:00 2486m -5°C -5_10 0cm 68% 10mph 11mph 1027mB
12:00 2635m 3°C 3_10 0cm 83% 10mph 11mph 1025mB
15:00 2577m 3°C 3_10 0cm 99% 10mph 12mph 1024mB
18:00 2041m 3°C 3_7 0cm 100% 7mph 8mph 1026mB
21:00 2207m -3°C -3_7 0cm 97% 7mph 9mph 1027mB
0:00 2298m -3°C -3_8 1cm 98% 8mph 10mph 1025mB
3:00 2304m -1°C -1_9 1cm 100% 9mph 11mph 1024mB
6:00 2480m -1°C -1_11 1cm 100% 11mph 13mph 1024mB
9:00 2571m 0°C 0_11 1cm 100% 11mph 13mph 1023mB
12:00 2728m 2°C 2_11 1cm 99% 11mph 13mph 1022mB
15:00 2720m 2°C 2_11 1cm 98% 11mph 14mph 1022mB
18:00 2594m 2°C 2_11 1cm 94% 11mph 14mph 1023mB
21:00 2511m 0°C 0_9 1cm 98% 9mph 12mph 1024mB
0:00 2312m -1°C -1_8 1cm 94% 8mph 11mph 1024mB
3:00 2322m -1°C -1_7 0cm 88% 7mph 8mph 1024mB
6:00 1832m -4°C -4_5 0cm 88% 5mph 6mph 1024mB
9:00 3473m -4°C -4_5 0cm 92% 5mph 6mph 1022mB
12:00 3589m 7°C 7_6 0cm 90% 6mph 6mph 1020mB
15:00 3642m 7°C 7_5 0cm 92% 5mph 6mph 1019mB
18:00 2089m 7°C 7_3 0cm 90% 3mph 4mph 1020mB
21:00 2104m -3°C -3_4 0cm 84% 4mph 5mph 1020mB
0:00 2113m -3°C -3_4 0cm 89% 4mph 5mph 1019mB
3:00 2074m -3°C -3_4 0cm 56% 4mph 5mph 1017mB
6:00 2080m -3°C -3_4 0cm 54% 4mph 6mph 1016mB
9:00 3556m -2°C -2_6 0cm 46% 6mph 6mph 1014mB
12:00 3251m 7°C 7_5 0cm 36% 5mph 6mph 1011mB
15:00 3108m 7°C 7_3 0cm 22% 3mph 4mph 1010mB
18:00 2377m 7°C 7_8 0cm 24% 8mph 10mph 1011mB
21:00 2773m 0°C 0_9 0cm 99% 9mph 11mph 1010mB
0:00 2584m 0°C 0_9 1cm 97% 9mph 11mph 1008mB
3:00 2431m -1°C -1_11 1cm 100% 11mph 15mph 1006mB
6:00 2279m -2°C -2_3 2cm 100% 3mph 4mph 1006mB
9:00 1889m -5°C -5_11 13cm 100% 11mph 13mph 1007mB
12:00 1473m -1°C -1_9 10cm 100% 9mph 11mph 1008mB
15:00 1451m -7°C -7_11 6cm 100% 11mph 14mph 1008mB
18:00 1279m -7°C -7_10 6cm 100% 10mph 13mph 1010mB
21:00 1136m -9°C -9_9 5cm 100% 9mph 12mph 1010mB
0:00 965m -10°C -10_8 5cm 100% 8mph 11mph 1010mB
3:00 846m -11°C -11_6 2cm 100% 6mph 7mph 1010mB
6:00 747m -12°C -12_3 1cm 99% 3mph 3mph 1011mB
9:00 1149m -12°C -12_4 1cm 99% 4mph 4mph 1011mB
12:00 1496m -6°C -6_5 1cm 99% 5mph 5mph 1011mB
15:00 1412m -6°C -6_4 3cm 100% 4mph 5mph 1011mB
18:00 1105m -6°C -6_5 4cm 100% 5mph 7mph 1014mB
21:00 1063m -10°C -10_4 4cm 100% 4mph 4mph 1015mB
0:00 1210m -10°C -10_5 3cm 100% 5mph 6mph 1015mB
3:00 1435m -8°C -8_7 2cm 100% 7mph 8mph 1015mB
6:00 1493m -8°C -8_8 1cm 100% 8mph 10mph 1016mB
9:00 1927m -6°C -6_8 3cm 100% 8mph 10mph 1017mB
12:00 2187m -2°C -2_9 3cm 100% 9mph 11mph 1017mB
15:00 2114m -2°C -2_9 4cm 100% 9mph 10mph 1018mB
18:00 1867m -2°C -2_12 2cm 99% 12mph 14mph 1021mB
21:00 1890m -4°C -4_12 1cm 99% 12mph 14mph 1023mB
0:00 1811m -5°C -5_11 0cm 96% 11mph 12mph 1024mB
3:00 1692m -5°C -5_7 0cm 100% 7mph 8mph 1025mB
6:00 1805m -5°C -5_4 0cm 100% 4mph 5mph 1026mB
Afternoon 0.0885417mm 0 3012m 2°C 2_10 0cm 100% 10mph 13mph 1024mB
Morning 0.015625mm 0 3468m -1°C -1_12 0cm 66% 12mph 17mph 1020mB
Afternoon 0.369792mm 0 3573m 4°C 4_13 0cm 100% 13mph 17mph 1012mB
Morning 1.70312mm 0.9375 3100m 3°C 3_11 0cm 100% 11mph 16mph 1008mB
Afternoon 0.583333mm 1 2384m 4°C 4_3 8cm 84% 3mph 5mph 1013mB
Morning 1.78125mm 0.0625 1585m -4°C -4_10 14cm 100% 10mph 14mph 1020mB
Afternoon 0.671875mm 0.0625 1499m -3°C -3_10 5cm 100% 10mph 14mph 1025mB
Morning 0.135417mm 0 952m -8°C -8_5 1cm 98% 5mph 6mph 1029mB
Afternoon 0.0104167mm 0 584m -2°C -2_3 0cm 67% 3mph 3mph 1027mB
Morning 0mm 0 715m -10°C -10_4 0cm 20% 4mph 4mph 1025mB
Afternoon 0mm 0 1427m 1°C 1_7 0cm 79% 7mph 7mph 1021mB
Morning 0mm 0 1247m -6°C -6_4 0cm 10% 4mph 4mph 1018mB

16 day outlook at a glance

Forecast issued: 21/10/2018 02:19:27

Chat

Your comments and questions. In a resort? Let us know what it's like!


Characters left 250

For terms and conditions see Readers Comments on the Cookie and privacy policy page.